RH
86 87 90 88 85 84 85 90 95 98 99 99 97 93 86 79 74 70 69 70 70 68 66 64 62 60 57 55 53 51 51 54 58 62 68 73 76 79 80 81 82 84 86 92 94 92 86 82 80 80 83 85 85 85 83 79 71 62 57 58 62 68 74 78 81 80 77 77 77 78 76 80 87 91 90 85 82 82 87 87 89 91 91 89 88 86 84 81 81 83 85 92 96 97 94 88 86 88 88 91 92 92 92
88 88 90 90 89 89 90 93 96 99 99 99 96 92 85 80 75 71 68 68 66 65 63 63 63 62 59 53 50 49 49 52 57 63 68 73 77 79 80 81 82 83 85 90 93 94 90 87 87 87 88 88 87 86 84 75 65 58 56 58 62 68 74 76 77 76 74 77 82 86 87 88 92 93 90 85 82 81 83 85 86 86 85 84 84 84 81 80 82 84 85 88 92 94 93 89 87 86 87 90 90 90 88
92 90 91 93 95 95 96 95 96 98 99 99 96 92 87 83 79 75 71 69 67 65 64 61 60 58 55 50 48 48 49 52 58 64 70 75 78 79 80 79 79 80 83 88 92 93 91 90 90 90 89 87 87 85 79 68 61 58 55 58 63 70 77 79 80 81 82 83 88 92 94 93 96 96 91 85 77 72 71 76 75 74 78 83 85 84 81 81 84 86 86 84 87 90 91 91 89 87 88 89 90 89 85
95 93 94 96 97 98 99 98 97 97 99 98 96 93 91 87 83 78 75 72 72 71 69 63 56 51 49 49 49 50 52 56 61 66 72 76 78 78 77 75 74 76 80 85 89 92 91 90 90 89 87 86 85 81 71 64 59 55 52 59 67 75 82 85 86 85 84 84 88 93 98 97 99 99 95 87 81 76 74 76 75 75 81 85 85 84 84 85 87 88 87 87 86 87 90 90 90 90 89 89 87 84 80
96 96 96 97 98 99 99 99 97 97 98 97 96 95 92 88 84 81 78 76 76 75 72 64 54 45 40 46 49 52 57 61 66 70 74 76 76 75 72 70 70 72 75 80 85 89 91 90 88 87 85 85 81 75 67 63 56 51 49 57 67 76 84 86 86 86 86 86 91 96 100 100 100 99 95 88 86 85 84 84 83 82 84 89 88 85 81 87 87 85 85 89 90 88 87 87 87 88 89 89 86 82 75
95 96 97 97 97 98 98 98 97 97 98 98 97 95 92 88 85 83 81 80 79 77 73 66 55 44 38 41 46 52 59 65 69 72 74 74 73 71 69 69 69 70 72 75 79 84 88 87 86 84 84 83 79 73 68 62 53 47 47 56 69 80 87 86 84 81 79 84 91 96 99 100 100 99 96 90 88 88 85 87 87 87 87 90 90 88 83 84 85 85 85 88 91 93 91 90 89 89 89 89 85 81 79
93 95 95 95 96 96 95 95 96 98 99 99 97 93 88 85 84 84 83 82 80 77 75 67 56 45 38 40 44 50 56 62 66 69 70 70 69 68 68 69 70 69 69 71 75 79 83 84 83 82 81 80 78 74 70 61 52 48 50 60 73 85 90 84 83 81 73 73 81 92 99 99 99 97 93 90 92 94 92 91 90 90 90 91 90 88 88 83 77 74 74 79 87 93 91 89 88 88 87 85 85 85 87
90 92 92 93 93 94 93 91 93 97 100 99 95 90 85 85 86 86 85 85 83 80 76 68 57 46 39 40 43 46 51 55 58 61 63 64 65 66 68 70 69 68 67 69 72 75 79 81 81 80 79 78 76 73 69 60 54 51 53 60 72 82 84 85 87 87 78 70 75 86 95 98 98 96 89 88 93 98 98 97 97 99 99 98 97 97 95 93 88 83 78 75 75 78 85 86 86 86 84 84 83 84 87
87 89 89 90 92 93 92 91 93 96 100 98 93 87 85 85 86 87 88 81 81 83 80 69 58 48 41 41 43 45 47 50 51 54 56 59 62 64 68 70 69 67 66 66 69 72 77 79 79 79 78 77 76 72 68 61 57 55 54 58 67 77 87 85 86 86 79 74 76 83 90 95 98 98 94 92 93 96 97 96 96 96 95 94 95 96 97 98 98 96 94 87 83 81 81 80 79 79 83 83 81 79 81
85 87 87 89 91 92 93 93 94 97 99 96 90 85 85 85 86 88 89 85 84 83 80 71 61 51 43 42 43 44 45 47 48 50 53 56 60 63 68 69 68 67 66 65 67 70 75 78 79 78 78 77 75 72 68 62 58 55 54 58 66 75 85 86 86 85 85 78 75 76 83 88 92 96 96 95 94 95 96 93 91 90 88 86 86 87 89 93 96 96 96 92 88 84 83 79 79 82 85 88 84 79 81
84 85 85 87 89 92 94 94 95 97 98 91 87 85 85 85 86 87 89 88 86 83 79 73 65 55 47 43 43 43 44 45 46 49 51 55 59 63 67 68 67 66 66 65 66 69 73 77 78 78 77 76 74 71 67 61 55 52 53 60 67 75 84 88 88 85 80 82 79 75 72 78 84 88 91 91 91 92 95 92 89 86 85 83 81 80 82 87 91 93 92 87 83 80 82 84 87 89 87 86 82 78 79
84 84 85 86 88 91 95 95 95 94 93 87 85 85 87 87 87 86 87 87 85 81 77 73 67 60 52 46 43 43 43 43 45 47 51 54 58 62 66 66 65 65 65 66 66 68 71 75 77 77 76 75 73 70 67 61 56 53 56 63 70 76 83 88 88 86 83 81 80 78 73 74 77 82 85 85 87 89 92 88 86 85 84 82 78 75 75 77 79 80 78 74 72 74 80 86 87 85 86 86 83 80 76
84 84 85 85 88 91 94 95 95 92 89 86 86 88 90 89 88 87 86 86 84 80 75 72 68 64 57 51 46 43 42 42 44 46 50 53 57 62 65 64 63 63 64 65 66 68 69 72 75 76 75 74 72 69 67 63 59 57 59 65 71 77 83 86 87 86 86 86 85 83 79 77 78 80 82 82 82 84 87 84 84 84 83 82 78 74 71 70 74 78 76 70 69 71 76 81 81 81 85 84 83 83 84
87 87 86 86 88 91 94 96 95 93 90 88 89 91 93 92 91 89 88 87 84 79 74 71 69 66 61 55 50 45 42 41 42 44 47 51 56 61 64 63 62 61 62 64 66 67 69 71 73 75 75 73 71 69 67 64 61 59 59 65 72 78 83 83 83 83 82 85 87 86 84 82 82 83 83 79 79 81 84 82 83 84 84 83 82 79 75 75 77 79 80 78 76 74 74 76 78 82 85 83 83 84 87
92 92 90 88 89 92 95 97 97 96 95 93 92 93 95 95 94 92 90 88 84 78 73 70 68 66 63 58 52 47 43 41 41 42 44 48 53 59 63 63 62 61 61 63 64 66 68 70 72 74 75 73 70 68 66 64 61 59 57 63 69 75 79 79 79 79 79 85 87 88 88 85 85 86 86 81 78 77 79 80 81 83 85 85 85 85 82 83 84 86 85 85 85 83 79 78 78 78 80 80 82 84 85
96 96 96 92 90 91 95 98 99 99 98 98 97 96 96 97 96 95 92 89 84 77 72 68 66 63 61 58 53 49 44 41 40 40 41 44 49 54 59 60 61 60 60 62 63 65 67 68 71 73 75 73 70 68 67 64 62 60 58 60 63 68 71 74 76 77 77 81 83 85 86 87 86 86 89 86 82 79 77 76 77 79 82 84 87 87 83 85 87 87 84 86 87 86 85 83 81 80 79 79 80 82 85
97 98 99 97 94 92 93 95 97 99 100 100 99 99 98 98 97 95 93 89 84 77 71 68 64 61 57 55 52 49 45 42 39 38 38 40 43 47 51 53 54 55 56 59 61 63 65 67 69 71 73 73 71 69 67 65 63 62 62 60 60 61 64 69 73 76 76 79 79 78 79 84 85 85 87 89 87 84 79 75 73 73 77 80 84 85 82 85 87 87 85 87 87 86 87 86 85 83 81 80 79 79 82
96 97 99 99 98 96 93 93 94 97 99 100 100 100 99 99 97 95 91 89 84 78 71 67 63 59 54 51 50 48 45 41 38 36 36 37 39 41 43 45 45 46 48 52 57 61 64 65 67 68 70 71 71 70 68 66 65 65 66 63 61 59 60 65 70 75 77 77 77 76 75 77 79 80 82 87 88 85 79 74 72 73 76 78 80 82 84 87 89 89 88 89 88 87 87 87 88 88 86 83 81 80 80
94 94 96 98 99 99 98 94 93 93 98 99 99 100 100 99 97 94 89 88 85 80 72 67 63 58 53 49 48 47 45 41 38 36 36 37 38 39 40 40 40 40 41 44 51 58 63 64 65 66 67 68 69 70 69 67 66 66 67 66 64 62 60 63 68 73 75 76 77 77 76 75 76 76 78 82 84 83 78 74 74 76 79 79 80 81 84 86 89 90 90 90 90 89 89 89 90 91 90 86 83 82 83
92 91 92 93 96 98 99 98 95 93 95 97 98 99 100 99 97 93 89 88 86 81 75 69 65 61 56 50 47 45 44 42 39 37 36 37 37 38 38 38 38 38 38 40 45 52 60 63 64 64 65 65 66 68 71 68 67 67 68 68 66 64 62 63 66 70 70 72 74 77 78 77 76 76 77 79 81 81 78 76 78 80 83 83 83 83 85 87 89 91 91 90 90 90 91 91 91 92 91 88 85 83 83
89 89 89 90 92 95 98 99 97 95 92 93 96 99 100 99 97 94 91 91 89 85 79 73 68 64 60 54 49 45 43 41 40 38 37 38 38 38 38 38 38 38 38 39 41 47 56 61 63 63 63 63 63 65 70 68 68 68 68 68 67 66 64 63 64 67 70 70 72 75 78 78 78 79 79 79 79 79 79 82 84 85 87 87 86 85 86 89 91 92 91 91 90 91 92 92 92 92 93 90 86 81 80
89 89 88 89 90 92 95 98 99 97 94 92 94 98 100 97 96 94 93 93 92 90 85 78 72 67 63 59 53 48 43 41 40 40 40 41 42 43 44 44 43 41 39 37 38 42 51 59 62 62 62 60 60 62 67 68 67 67 68 68 68 67 65 63 63 65 69 70 72 75 79 81 83 83 83 81 81 81 82 86 88 90 91 91 90 88 88 91 92 93 92 91 91 91 91 93 93 93 94 93 88 81 75
91 90 89 89 90 91 93 95 97 99 98 96 95 96 99 96 95 94 95 95 95 93 91 83 76 70 66 62 58 53 49 46 45 45 47 48 50 51 53 53 52 48 42 37 35 38 48 58 61 61 60 59 58 59 62 64 64 64 65 68 68 68 66 64 63 64 65 70 74 78 82 85 87 88 88 85 85 86 88 89 89 90 91 92 92 92 92 93 93 93 92 91 91 90 90 90 92 93 94 95 90 83 73
93 92 92 92 92 92 93 94 95 97 100 99 98 98 99 98 97 96 96 96 96 95 95 89 81 73 68 66 62 59 57 56 56 57 59 61 62 63 63 62 60 55 47 40 38 41 50 58 60 60 59 58 58 58 59 60 60 61 63 66 68 69 68 66 64 63 63 69 75 79 82 85 87 88 90 89 88 89 92 93 94 94 93 92 92 92 96 96 94 92 90 90 89 89 88 87 88 91 93 95 94 89 80
96 96 96 96 95 94 94 94 94 95 98 99 99 99 100 99 99 98 99 98 96 95 96 93 86 78 73 74 71 66 65 65 67 69 72 74 75 75 73 69 66 61 53 48 47 50 55 59 60 60 60 60 60 59 59 58 58 59 60 64 67 69 70 69 67 65 62 63 68 73 78 80 82 85 87 89 90 90 91 94 97 98 97 95 93 92 94 97 96 94 91 91 90 90 90 88 87 88 90 93 95 95 94
99 99 99 99 98 97 96 95 94 93 94 96 98 99 99 99 99 99 100 99 96 93 93 94 90 83 78 79 76 72 71 72 75 78 81 83 83 83 81 75 71 66 60 58 58 60 63 63 64 64 64 64 64 63 63 62 60 60 60 61 64 67 69 69 69 68 66 63 62 64 69 74 77 80 84 88 90 92 94 92 95 98 98 97 93 91 90 93 95 96 95 93 93 93 94 93 92 91 91 93 94 96 98
100 100 100 100 100 99 98 96 95 93 92 93 94 95 94 95 96 97 100 100 97 93 90 94 93 88 82 79 77 75 75 77 80 85 87 88 88 88 87 81 76 71 68 67 67 68 68 68 68 68 68 69 69 69 69 67 65 62 61 61 62 64 66 67 68 70 72 71 66 61 59 63 69 76 83 84 87 92 97 95 94 95 97 96 95 93 90 90 92 93 93 93 94 95 96 97 97 97 97 96 95 95 95
100 100 100 100 99 99 98 97 95 94 92 92 92 92 92 91 92 94 99 100 98 94 88 95 96 92 85 81 79 78 76 80 84 88 91 91 91 91 90 86 81 77 74 73 72 71 71 70 70 71 71 72 73 74 73 71 68 66 64 63 62 62 63 64 65 68 73 76 75 70 64 59 58 64 75 81 85 88 93 93 93 93 95 96 97 96 94 92 92 91 88 89 93 97 98 98 98 98 99 98 97 96 94
100 100 100 99 98 99 99 97 95 93 93 92 93 94 93 91 92 95 99 100 98 94 87 93 96 94 89 85 82 80 79 83 87 91 92 93 93 93 92 90 86 82 80 78 76 74 73 72 72 73 74 75 76 76 75 73 71 69 67 65 64 63 62 63 64 66 69 74 77 77 75 68 61 59 63 72 80 84 86 87 90 91 92 96 98 99 98 96 94 93 92 92 95 98 99 98 97 97 97 97 97 97 95
100 100 100 99 98 98 99 98 96 93 92 92 93 95 96 93 93 95 100 100 99 94 85 92 95 95 91 88 84 82 82 85 89 92 93 94 94 94 93 92 89 86 84 83 81 79 76 74 74 75 76 78 78 78 76 74 72 70 68 66 65 64 63 64 65 67 69 69 72 75 77 76 73 68 65 66 70 75 81 83 86 88 91 94 97 99 99 98 97 96 95 96 97 98 99 98 96 94 93 93 92 91 91
99 100 100 100 100 99 99 99 98 96 93 92 92 93 96 94 93 94 99 100 98 93 85 91 94 94 91 90 87 85 84 87 89 91 94 95 95 94 94 94 92 89 87 86 85 84 79 76 75 76 78 80 80 79 78 76 74 72 70 68 67 66 66 66 68 71 74 73 71 70 72 78 80 79 79 76 73 71 71 75 78 82 85 89 93 96 98 98 96 95 95 95 96 97 98 97 95 93 93 93 92 91 89
97 97 97 98 99 100 100 100 100 99 98 95 93 92 94 95 94 94 98 100 97 92 85 90 93 93 91 92 92 91 90 90 92 94 98 99 98 96 97 98 96 94 91 89 89 87 83 79 77 78 80 81 82 82 80 78 77 75 74 73 71 70 70 70 72 74 78 81 81 78 72 72 75 80 84 81 81 81 80 79 78 78 78 79 83 87 92 93 93 92 91 92 93 95 95 95 94 93 94 93 91 89 87
95 93 91 93 97 99 100 100 100 100 100 98 95 92 91 93 94 96 99 100 97 93 90 94 95 95 93 95 96 97 98 98 99 100 100 100 99 99 99 100 99 97 94 92 91 89 86 83 82 82 83 84 84 83 82 81 79 78 77 77 76 75 74 73 75 77 81 83 84 84 83 76 73 75 81 84 85 86 87 88 87 85 83 80 80 82 83 84 84 85 86 88 91 94 94 93 93 93 93 92 92 91 89
94 92 87 87 89 92 94 97 99 100 100 99 96 92 90 92 95 98 100 100 97 96 98 99 99 98 97 98 98 99 100 100 100 100 99 100 100 100 100 100 99 98 97 94 93 91 88 86 86 86 87 87 87 85 85 84 83 82 80 79 79 79 78 77 78 80 83 84 84 84 83 83 79 75 73 78 82 85 88 88 86 85 87 88 87 85 82 81 81 81 82 85 89 92 93 92 92 91 90 91 92 93 93
97 93 87 81 80 82 84 91 96 98 100 100 98 94 92 92 94 98 100 100 99 98 99 100 100 100 100 100 99 99 99 100 99 99 97 98 99 100 100 100 100 99 98 97 95 93 91 90 90 90 91 92 91 89 88 87 86 85 83 82 81 81 81 81 82 83 84 85 85 85 83 81 81 80 76 74 74 76 81 83 85 85 85 88 88 86 85 87 87 87 87 90 92 93 93 93 92 91 91 93 95 96 96
96 91 83 78 79 82 84 87 89 91 97 99 100 98 93 93 95 98 100 100 100 99 99 99 99 100 100 100 100 99 100 100 98 97 95 96 98 99 100 100 100 100 99 98 97 95 94 93 94 94 94 93 92 91 90 88 87 85 84 83 83 83 83 83 84 85 85 85 85 85 83 80 79 78 78 77 75 73 73 74 77 82 83 85 86 86 83 85 88 91 92 95 97 98 96 95 95 95 96 97 98 99 98
96 93 85 78 79 83 87 85 82 82 90 97 100 99 96 97 97 98 99 99 100 100 100 99 99 99 100 100 100 100 100 98 97 95 95 96 97 98 99 99 100 100 100 99 98 97 96 95 95 96 95 92 91 90 89 87 86 85 84 84 84 84 85 85 85 86 86 86 86 85 84 81 80 79 78 78 78 77 76 74 73 74 78 81 83 83 81 83 85 88 91 93 95 97 98 98 99 98 97 96 98 99 99
98 96 91 83 80 82 85 83 82 84 88 96 99 99 98 99 98 98 98 99 100 100 100 100 99 99 99 100 100 99 98 95 93 92 92 93 95 96 97 98 99 99 100 99 99 98 97 96 96 96 95 91 89 88 88 87 86 85 85 85 86 86 87 87 87 87 87 87 86 86 85 83 82 81 81 80 80 79 78 77 76 75 74 75 77 80 82 83 85 86 88 90 91 93 96 98 98 98 97 97 97 97 97
98 99 98 91 86 84 85 77 78 85 90 94 97 98 98 99 99 98 99 99 100 100 100 99 99 99 99 100 99 99 97 93 89 87 89 91 92 93 95 95 96 97 99 99 99 99 98 98 98 96 94 90 88 87 87 86 86 86 86 87 87 88 88 88 88 88 88 88 87 87 86 85 84 84 83 83 82 81 80 79 78 78 77 76 76 76 78 81 83 85 85 86 87 89 91 93 94 94 96 96 96 95 95
95 98 99 96 92 89 89 79 77 82 89 92 94 96 95 97 98 99 99 99 100 100 99 99 99 99 100 100 99 99 98 94 91 89 90 92 92 91 90 89 90 91 93 96 98 99 98 98 97 95 92 89 87 86 86 85 85 85 85 86 87 87 88 89 89 90 89 89 88 88 88 87 87 86 85 85 84 83 82 80 79 79 79 79 78 78 77 79 82 84 84 85 87 87 85 85 86 87 88 88 89 90 93
92 95 99 99 97 96 95 91 88 87 92 94 95 96 93 93 95 97 99 99 99 100 100 99 99 99 99 99 99 99 98 95 93 92 92 91 89 87 86 84 83 83 83 87 91 94 95 95 94 92 89 87 86 85 84 83 83 82 83 83 84 85 86 88 89 90 90 90 89 89 88 88 88 87 87 86 85 84 83 81 80 80 80 81 81 80 79 79 82 85 86 87 87 86 84 85 86 86 85 84 86 89 91
90 93 98 99 99 99 99 98 97 96 96 97 98 98 97 96 96 97 99 99 100 100 100 100 99 98 97 97 97 97 96 95 93 92 90 89 86 85 83 81 80 79 78 79 81 84 86 88 88 88 87 87 86 85 84 83 83 82 82 83 84 85 85 86 88 89 90 90 90 89 89 88 88 87 87 86 85 84 83 82 81 81 81 82 82 82 82 84 88 92 92 92 90 87 87 87 88 89 88 88 88 90 90
88 92 97 99 100 100 100 99 98 97 97 98 99 99 98 98 99 99 99 99 99 99 99 99 99 98 97 96 96 95 95 93 92 90 88 86 85 85 84 82 81 80 79 78 78 78 79 81 83 84 85 86 86 86 86 86 86 85 86 86 86 86 86 86 87 88 89 89 89 89 88 88 88 87 87 87 86 85 85 85 84 84 84 84 84 85 86 87 91 95 96 96 94 93 91 90 90 90 89 89 88 88 90
86 90 96 98 98 97 96 94 93 93 93 95 97 98 97 97 97 97 98 98 98 98 98 98 98 97 96 95 95 95 94 92 91 89 87 86 86 86 86 86 85 84 83 82 81 80 79 79 80 81 82 83 83 84 84 85 86 87 87 86 85 85 86 87 88 88 89 88 88 88 88 87 87 87 88 88 88 90 91 89 88 87 87 86 87 88 89 89 91 93 95 97 96 94 93 93 93 92 90 89 88 88 89
82 86 91 93 92 90 87 87 87 87 87 88 92 96 95 94 94 94 95 96 96 96 96 97 97 96 95 94 94 94 94 93 92 91 90 89 89 90 90 89 88 87 86 85 84 83 82 81 80 80 79 79 78 78 79 81 83 83 83 83 83 84 85 86 87 87 88 88 88 88 88 87 87 88 89 91 93 95 94 92 90 89 89 89 90 91 91 90 91 92 93 94 93 92 91 91 92 93 92 91 91 91 90
78 82 86 88 86 84 81 81 81 82 82 82 88 94 95 93 92 91 92 93 94 95 95 96 97 97 97 97 96 96 97 96 96 95 95 94 94 94 93 92 91 89 88 86 85 84 82 81 80 79 77 75 74 74 75 77 78 80 81 82 82 83 83 84 85 85 86 86 87 87 88 88 89 91 94 96 97 97 96 94 93 92 92 92 92 93 93 90 90 91 92 92 93 93 91 90 91 93 96 96 96 96 95
78 81 82 84 84 83 80 78 78 78 78 79 84 90 93 91 89 88 88 90 91 93 95 95 96 97 97 99 99 99 99 99 99 99 99 99 98 96 95 93 92 91 89 87 86 84 82 79 77 76 75 74 74 75 76 77 79 80 82 83 83 83 83 83 83 84 85 86 88 89 90 91 93 95 98 99 99 99 98 97 96 95 94 94 94 93 93 90 89 89 90 94 96 97 96 96 96 97 99 99 99 99 99
80 81 81 79 79 79 80 77 76 77 77 77 80 84 87 86 86 87 88 88 89 91 95 95 94 93 94 97 98 98 97 98 98 99 99 99 99 98 97 94 93 91 90 88 86 83 80 77 74 72 72 76 78 80 81 81 81 82 83 83 83 83 82 82 82 84 88 91 92 93 93 93 95 97 99 99 99 99 99 99 98 97 96 96 96 95 93 91 89 88 90 96 99 99 99 99 99 100 100 100 100 99 99
82 82 81 77 74 72 72 74 75 76 76 75 76 78 81 82 85 88 91 88 88 90 94 94 92 90 89 92 93 93 92 93 95 96 97 96 96 95 93 91 88 84 81 80 78 76 74 72 71 71 73 78 82 84 85 84 84 84 85 84 82 81 81 80 83 88 92 94 95 95 94 95 96 98 99 99 100 100 100 100 99 99 98 98 97 96 94 92 91 90 93 97 99 100 99 99 100 100 100 99 99 99 99
84 83 82 78 74 70 67 69 73 75 75 74 74 75 77 79 83 86 89 87 86 88 90 91 90 88 87 87 87 88 89 91 93 94 95 93 90 87 87 82 77 73 70 70 70 70 69 69 69 71 75 79 82 84 85 85 85 85 85 84 81 79 78 82 89 95 95 95 96 95 95 94 95 96 98 99 100 100 100 100 100 99 98 97 97 96 95 93 93 93 96 98 99 99 99 100 99 99 100 100 100 100 100
84 84 83 80 77 72 68 68 70 73 75 74 74 75 76 78 81 84 85 85 85 85 86 87 87 86 85 84 85 85 87 90 92 92 91 92 89 86 88 78 73 69 66 63 63 65 66 66 68 71 74 77 80 82 83 84 85 85 85 83 79 77 76 90 96 97 96 95 95 94 93 93 95 97 99 99 100 100 100 100 99 98 97 97 98 99 98 98 98 98 99 99 99 99 99 100 98 97 98 99 100 100 100
85 84 83 81 79 76 73 70 70 72 74 74 74 76 77 78 78 78 79 82 83 82 78 80 82 83 82 80 80 80 82 86 90 91 85 91 92 90 85 77 72 69 73 55 53 57 58 62 66 70 74 74 76 78 80 82 84 85 84 80 78 80 89 95 97 97 96 96 96 95 94 95 97 99 99 100 100 100 100 100 98 97 97 98 99 99 100 100 100 100 100 99 99 99 99 99 98 96 96 98 100 100 100
88 85 83 81 81 80 78 74 72 72 74 74 75 76 77 77 76 74 72 74 75 75 70 73 76 77 78 77 76 75 75 81 88 92 88 86 88 89 82 78 76 72 68 57 51 49 49 53 60 66 70 68 69 73 78 82 84 84 82 80 83 87 93 96 97 97 97 97 98 98 98 99 99 100 100 100 100 100 100 99 98 97 98 99 99 100 100 100 100 100 100 100 99 99 99 99 99 99 97 99 99 100 100
91 88 86 85 83 82 80 77 75 74 74 75 75 76 77 77 76 74 72 71 71 71 68 69 71 73 74 75 74 73 73 79 87 93 93 87 85 83 79 76 80 87 97 73 54 45 49 64 69 72 83 78 78 82 86 88 87 85 82 84 89 94 99 99 99 98 98 99 100 100 100 100 100 100 100 100 100 100 100 100 99 99 99 99 100 100 100 100 100 100 100 100 99 99 99 100 100 100 100 100 100 100 100
94 91 89 88 86 84 82 81 79 77 77 77 77 76 76 77 76 75 73 72 71 70 68 68 69 70 71 72 72 72 77 87 95 100 99 92 85 82 83 85 88 89 87 74 59 51 61 80 81 76 77 83 87 89 90 89 87 85 85 85 90 95 98 99 99 99 99 99 100 100 100 100 100 100 100 100 100 100 100 100 100 100 100 100 100 100 100 100 100 100 100 100 99 99 99 100 100 100 100 100 100 100 100
96 94 92 90 89 87 85 84 82 80 79 80 79 78 78 78 78 78 76 75 72 70 69 69 70 70 70 69 69 71 76 86 94 99 98 94 88 80 70 70 70 70 69 64 59 61 77 82 84 80 67 71 76 80 82 83 84 84 84 85 89 93 97 98 99 100 100 100 100 100 100 100 100 100 100 100 100 99 99 99 100 100 100 99 99 99 100 100 100 100 100 100 99 99 99 100 100 100 100 100 100 100 100
98 96 94 93 91 90 88 86 84 83 83 84 83 82 82 82 82 81 80 78 76 74 72 72 71 71 70 69 68 69 72 79 87 92 92 91 87 80 71 64 63 62 60 62 64 70 84 88 89 83 68 68 71 76 77 80 82 83 84 86 89 92 95 96 97 98 99 99 100 100 100 100 99 99 98 98 97 98 98 98 98 98 98 98 98 98 98 99 99 99 99 99 99 99 99 100 100 100 100 100 100 100 100
99 99 98 95 93 92 90 88 87 87 87 87 87 87 86 85 84 84 84 82 81 80 77 74 73 72 72 71 69 68 69 76 81 85 87 86 84 81 78 73 70 67 63 74 76 78 91 92 86 76 69 68 73 77 76 77 78 80 82 84 86 88 91 92 93 94 95 96 98 99 99 99 98 97 96 94 94 94 94 94 94 94 95 95 95 96 96 96 96 96 96 97 97 98 98 99 100 100 100 100 100 100 100
100 99 99 97 95 93 90 90 89 90 91 91 91 90 88 87 87 88 87 86 86 84 82 78 75 74 74 73 71 70 70 75 79 82 83 83 82 82 82 79 77 76 77 78 75 74 78 82 80 74 68 69 74 79 83 84 84 84 84 83 83 83 85 88 90 92 93 94 95 96 97 98 98 97 95 92 90 88 86 85 85 85 85 85 86 87 89 91 92 93 93 94 94 95 96 98 99 99 100 100 99 98 97
100 100 100 99 97 94 92 91 90 90 92 92 92 91 90 91 91 91 90 89 88 87 85 82 79 77 77 75 73 71 71 75 78 80 80 80 81 83 82 80 79 78 77 76 74 71 66 71 76 77 71 72 76 81 86 89 90 89 87 85 83 83 84 85 87 89 90 91 92 93 95 96 96 95 94 91 87 82 78 76 75 74 74 73 72 72 73 76 79 83 86 88 90 91 93 96 98 99 99 99 98 96 93
99 100 100 100 99 97 94 92 90 90 91 92 92 93 93 93 93 93 93 91 90 89 87 84 82 80 79 78 76 74 74 76 78 78 78 78 81 84 82 80 78 77 76 75 74 72 68 69 70 70 70 78 81 82 86 89 91 92 91 88 84 82 81 81 81 82 84 86 88 90 92 93 94 93 92 88 84 79 73 70 68 67 66 64 63 61 61 62 65 69 74 79 83 85 88 92 96 99 99 99 97 94 92
Wind_Speed
21 21 21 21 22 21 20 19 17 18 20 22 23 23 22 21 20 19 19 19 19 18 18 18 17 17 17 17 18 19 20 21 21 21 20 20 20 20 18 16 14 13 13 15 18 20 21 21 20 19 18 17 16 16 15 14 13 11 10 9 10 10 11 12 12 12 11 10 9 9 10 12 14 15 15 14 14 15 15 15 14 12 12 11 11 12 13 13 13 13 12 12 12 14 15 14 13 13 13 13 13 13 13
21 21 21 21 21 21 21 20 18 18 20 22 23 23 21 20 18 18 18 18 18 18 17 17 17 18 18 18 19 19 20 21 22 22 21 21 21 20 18 16 14 13 13 15 17 20 21 20 20 18 17 16 15 15 15 14 12 11 10 9 10 11 12 13 13 12 11 10 10 9 10 13 15 16 15 14 14 15 15 15 14 13 12 11 11 11 12 13 13 12 12 12 12 12 13 12 12 12 12 13 13 12 12
21 21 21 21 21 21 22 22 20 18 19 21 22 22 20 18 17 17 17 17 17 17 18 18 18 18 19 19 20 20 21 22 22 22 22 22 21 19 18 16 15 14 13 15 17 19 20 20 19 18 16 15 14 15 15 13 12 10 10 10 11 12 13 13 13 13 12 11 10 10 10 14 17 17 15 14 14 14 14 14 13 13 13 12 12 12 12 12 12 12 12 11 11 11 11 11 11 11 11 11 11 11 11
20 20 21 21 20 20 22 23 22 20 19 19 20 20 19 17 16 16 16 17 17 18 18 18 18 19 20 20 21 21 22 22 23 23 22 21 20 18 17 16 15 14 13 14 17 19 20 20 18 17 15 14 14 15 14 13 11 10 10 11 12 13 14 14 13 13 12 11 10 9 10 14 18 19 17 14 13 13 13 13 13 13 13 13 12 12 12 12 12 11 11 11 11 10 10 10 10 10 10 9 9 9 8
21 20 21 21 20 19 20 23 23 21 19 19 19 19 18 17 16 16 16 16 17 18 18 18 19 20 21 21 21 22 23 23 23 23 22 20 19 17 16 15 14 14 14 14 16 18 19 19 18 16 15 15 15 15 14 12 11 11 11 11 12 13 14 14 14 13 12 11 10 9 10 15 19 20 18 15 14 13 13 13 13 13 13 13 13 12 12 12 11 11 11 10 10 10 10 9 9 9 9 8 8 7 6
21 21 21 21 20 19 19 21 22 21 20 19 19 18 17 16 16 15 16 16 17 18 18 18 19 20 21 22 22 22 23 23 23 22 21 19 18 16 16 15 15 14 14 14 16 17 19 19 18 17 15 15 15 14 13 11 11 11 11 11 12 14 14 14 13 13 12 11 10 10 12 16 19 20 18 16 15 14 13 13 13 13 13 13 12 12 11 11 11 11 11 11 10 10 9 9 9 9 8 8 7 7 6
21 21 20 20 20 20 19 20 21 22 21 20 19 18 17 16 16 16 16 17 17 17 18 18 19 20 22 22 22 22 23 22 22 21 19 18 17 16 15 15 15 15 14 15 16 17 18 19 18 17 16 15 14 13 12 11 11 11 11 12 13 14 13 12 12 12 12 11 10 11 12 15 18 18 17 16 16 16 15 14 13 13 13 13 13 12 12 11 10 9 10 10 10 10 9 8 8 8 8 7 7 7 7
21 21 20 19 19 19 19 20 21 22 22 21 20 18 18 17 16 16 16 17 17 17 18 18 18 20 22 22 22 22 22 21 20 19 18 17 16 16 15 16 16 15 15 14 15 17 18 18 18 17 16 15 14 13 12 11 11 11 12 12 13 13 12 12 12 12 12 11 11 11 12 14 16 17 16 15 14 14 14 13 13 13 13 12 12 12 12 11 10 9 8 8 8 8 8 8 7 7 6 6 7 7 7
21 20 19 19 19 19 19 19 20 21 22 22 20 18 18 17 17 17 17 17 17 17 17 17 18 19 21 22 22 21 21 20 19 18 17 16 16 15 15 16 17 16 15 14 15 16 18 18 18 17 16 16 14 13 12 11 11 12 12 12 13 13 12 12 12 12 11 11 11 12 12 12 14 15 16 15 14 12 12 12 11 10 10 10 9 8 8 8 9 8 7 6 6 6 6 6 6 6 6 6 6 7 7
20 20 19 19 19 19 18 18 19 20 20 21 20 18 17 17 17 17 17 17 17 17 17 17 17 18 20 21 21 21 20 19 18 17 17 16 16 15 16 17 17 18 17 15 15 16 18 19 18 17 16 15 14 13 11 11 11 11 12 12 13 13 13 12 12 12 11 11 11 12 12 13 12 12 13 14 13 12 11 10 9 8 8 7 7 7 6 6 6 7 6 6 5 5 6 6 7 7 7 6 6 6 7
19 19 19 19 19 19 18 18 19 19 19 19 19 18 17 17 17 17 17 17 17 16 16 16 16 17 18 20 21 20 20 19 18 17 17 16 16 16 16 17 18 19 18 16 15 16 18 18 18 16 16 15 14 12 11 11 11 11 12 13 13 14 13 13 13 12 12 11 11 11 12 12 13 12 11 11 10 10 10 9 8 7 6 6 6 7 8 8 7 7 7 6 6 6 6 7 8 7 6 5 5 5 6
19 19 19 19 20 20 19 19 19 19 19 19 18 17 17 16 16 17 17 17 16 16 15 15 16 16 17 18 19 20 19 19 18 17 17 17 17 17 17 18 18 19 19 18 17 16 17 18 17 16 15 15 13 12 10 10 10 11 11 12 13 13 13 13 13 12 12 11 10 10 10 11 12 12 11 10 9 9 8 8 7 6 5 5 5 6 8 9 9 8 7 7 6 7 8 8 8 8 6 5 4 3 4
19 19 19 19 20 21 20 20 20 19 19 18 17 16 16 16 16 16 16 16 16 16 15 15 15 16 16 17 18 19 19 18 18 18 18 18 17 17 17 18 18 19 19 19 17 16 16 17 17 17 16 14 13 11 10 10 10 10 11 12 13 13 13 13 12 12 12 11 10 10 9 10 10 11 11 11 10 9 8 7 7 6 6 5 6 7 8 9 8 8 7 6 7 7 8 9 8 8 6 5 4 3 3
19 19 18 18 19 20 21 22 21 20 19 18 17 16 15 15 15 14 15 15 15 15 15 15 15 15 16 17 17 18 18 18 18 18 18 18 18 18 18 18 18 18 19 18 17 16 15 15 15 16 16 14 13 11 10 10 9 10 10 12 12 12 12 12 11 11 10 10 10 10 9 9 9 9 9 9 10 9 9 8 7 7 6 6 6 7 7 7 6 6 5 5 6 7 8 8 8 7 6 5 4 4 4
19 19 18 17 18 19 21 22 23 22 20 18 16 15 15 15 14 14 14 14 14 14 14 14 15 15 15 16 17 18 18 18 18 18 18 18 18 18 18 18 18 18 18 18 17 16 15 14 14 14 15 13 12 11 10 9 9 9 10 12 12 12 12 11 11 10 10 9 9 10 10 10 9 9 8 8 8 9 9 8 8 7 7 6 6 6 5 5 5 4 4 4 5 6 6 7 7 6 6 5 5 4 4
19 19 19 18 18 18 19 21 23 23 21 19 17 16 15 15 14 14 13 14 14 14 14 14 14 15 15 16 17 17 17 18 18 18 18 18 18 17 17 17 17 17 17 17 17 16 15 13 13 13 13 13 11 10 9 9 9 9 10 11 11 11 11 11 10 10 9 9 9 9 10 10 10 9 8 8 8 8 8 8 8 7 7 6 6 6 5 5 4 4 4 4 4 5 5 6 5 5 5 5 4 4 4
20 19 19 19 19 18 17 18 19 21 21 19 18 17 16 15 15 14 14 14 13 13 13 14 14 14 15 15 16 17 17 18 18 18 18 17 17 17 16 16 16 16 16 16 16 15 14 13 12 11 11 11 11 10 9 9 8 8 8 9 10 10 10 10 10 9 9 9 9 9 10 10 10 9 8 8 8 8 8 8 8 7 7 6 6 6 5 5 5 4 4 4 4 5 5 5 4 3 3 3 4 4 4
19 19 18 18 18 18 17 16 16 17 18 18 17 17 17 16 16 15 14 14 13 13 13 13 13 14 14 15 16 17 18 18 18 18 18 17 17 16 16 15 15 15 15 15 15 15 14 13 11 10 10 10 10 11 10 9 8 8 7 8 9 9 9 9 9 9 9 8 9 9 9 10 10 10 9 9 9 8 8 8 8 7 6 6 6 6 6 6 5 5 4 4 4 4 4 4 3 2 2 2 3 3 4
19 18 18 17 17 17 17 16 15 15 14 15 16 17 17 17 16 15 14 14 14 13 12 12 13 13 14 15 16 17 17 18 18 18 18 17 16 15 15 14 14 13 13 13 14 14 14 13 12 10 8 8 9 10 10 9 8 7 7 7 8 8 8 8 8 8 8 8 8 8 9 9 9 9 9 9 9 9 8 8 7 6 6 5 5 5 5 5 5 4 4 4 4 4 4 3 2 2 1 1 2 2 3
19 18 18 17 16 16 16 16 16 14 13 13 15 16 17 17 16 15 15 14 14 13 12 12 12 13 13 14 15 16 17 18 18 17 17 16 16 15 14 13 13 13 13 13 13 14 14 13 12 10 7 6 7 10 11 10 8 7 6 7 7 8 7 8 8 8 7 7 7 8 8 8 9 9 9 9 8 8 8 7 6 6 5 4 4 4 3 4 4 3 3 4 4 4 3 3 3 2 1 1 2 2 3
18 18 18 17 17 17 16 16 16 15 14 14 14 16 17 16 16 15 15 14 14 13 13 12 12 13 13 13 14 16 17 17 17 17 16 16 15 14 13 13 12 12 12 12 13 13 14 13 12 10 7 5 6 9 12 10 9 7 6 7 8 8 7 7 7 8 7 7 7 7 7 7 8 8 8 7 7 7 7 7 6 5 4 4 3 3 2 3 3 3 2 3 3 4 3 3 3 2 1 2 2 2 3
18 18 17 17 17 17 17 17 17 17 17 16 16 16 17 17 17 16 15 15 14 13 13 13 13 13 13 13 14 15 16 17 17 16 16 15 14 13 12 11 11 11 12 12 13 13 14 13 11 9 7 6 5 7 10 10 9 7 6 7 8 8 8 7 7 7 7 7 7 7 7 7 7 7 7 6 6 6 6 6 5 4 4 3 3 2 2 2 2 3 2 3 3 4 4 3 3 2 2 2 2 3 3
18 17 17 17 17 17 17 17 17 18 19 20 19 19 19 19 18 18 17 16 15 14 14 14 14 14 14 13 13 14 15 15 15 15 14 13 12 12 11 10 10 10 11 12 13 13 14 13 12 10 8 6 5 6 8 9 7 6 5 6 7 8 8 7 6 6 7 7 7 7 6 6 6 6 6 6 6 6 6 6 5 5 4 4 3 3 3 3 3 3 3 3 4 4 4 3 3 3 3 2 2 3 3
18 17 17 17 17 17 17 17 17 17 18 21 22 22 22 21 20 19 18 17 16 16 15 15 15 14 14 13 13 14 14 14 14 13 12 11 11 10 10 9 9 9 10 11 13 13 14 13 12 10 9 7 6 5 6 6 5 4 4 6 7 8 8 7 6 6 6 7 8 8 7 6 6 6 6 5 5 5 6 7 8 8 7 5 4 4 4 5 4 3 3 3 4 4 4 3 3 3 3 3 3 3 3
18 18 17 16 16 16 16 16 17 16 16 17 19 21 21 21 20 20 19 19 17 16 16 15 15 15 14 14 14 14 13 13 12 12 11 10 9 9 9 9 9 9 10 11 13 14 14 13 12 10 9 8 6 5 5 5 4 3 4 5 6 7 7 7 6 6 6 7 8 8 8 7 6 6 5 5 5 5 6 7 9 9 8 7 5 4 5 5 5 4 4 3 3 4 4 3 3 3 3 3 3 4 4
20 18 16 16 16 15 15 15 15 15 15 13 14 15 16 17 18 19 21 20 18 17 16 16 16 15 15 15 15 14 13 12 12 11 10 9 9 8 8 8 9 9 10 12 13 14 13 12 11 10 9 8 6 5 5 5 4 4 3 4 5 6 7 7 6 6 6 6 7 8 8 8 8 7 6 6 6 5 6 6 7 7 7 7 6 5 5 5 5 5 5 4 4 4 4 4 4 4 4 3 4 4 5
19 15 13 14 15 14 14 14 14 15 14 13 13 13 13 13 15 18 21 19 18 17 16 17 17 16 16 15 15 14 13 12 12 11 10 10 10 9 9 9 9 10 11 12 13 13 13 12 11 10 8 7 6 5 5 5 5 5 4 4 4 5 5 5 5 6 6 7 7 8 8 9 9 9 8 7 6 6 6 6 6 6 6 7 8 7 6 6 6 6 6 6 5 5 5 6 6 5 5 5 5 5 5
14 10 9 12 13 13 12 13 14 14 14 14 14 13 13 13 14 16 19 19 19 17 16 17 17 17 16 15 14 14 13 13 12 11 11 11 11 10 10 10 10 10 10 11 11 12 12 11 11 10 8 6 5 5 5 5 5 5 4 4 4 4 4 4 4 5 6 7 8 8 8 9 9 10 10 9 8 8 7 7 6 6 7 8 9 10 9 7 7 6 6 7 6 5 5 6 5 5 5 5 6 6 6
12 9 8 11 12 12 11 12 13 14 14 15 15 14 14 13 14 16 19 20 20 18 15 16 16 16 15 14 14 13 13 13 12 12 12 12 12 12 11 11 11 11 11 11 10 11 11 11 10 9 8 6 5 5 5 4 5 5 5 4 4 3 3 3 2 3 4 6 8 8 9 9 9 10 10 10 10 10 9 8 7 7 8 8 8 9 10 9 8 7 7 6 6 6 6 5 5 5 6 6 6 6 6
11 9 9 11 11 11 11 11 12 13 14 15 15 15 15 14 15 16 19 20 20 18 15 15 16 16 15 14 14 14 14 14 13 13 12 12 12 12 13 12 12 13 12 12 11 10 10 10 10 9 8 6 6 5 5 4 4 4 4 4 3 3 3 2 2 1 2 4 6 8 9 10 10 10 10 10 11 11 11 10 9 9 8 8 7 7 8 8 8 8 8 7 6 6 6 6 6 6 6 7 7 7 7
9 7 8 9 10 11 11 11 12 14 14 15 15 16 16 15 16 17 18 18 18 17 16 16 16 16 15 15 14 14 14 14 14 13 13 14 14 14 14 14 13 13 13 12 11 10 9 9 9 9 8 7 6 6 5 5 4 4 4 3 3 3 3 2 2 1 1 2 3 6 8 9 10 11 11 11 11 11 11 11 11 10 10 9 8 8 8 9 9 9 9 8 7 6 7 7 7 7 7 7 7 7 7
5 3 4 6 8 10 12 13 13 14 13 14 15 16 17 17 17 18 18 17 17 17 17 17 17 17 16 15 14 14 15 15 15 15 16 16 17 17 16 14 13 12 12 12 11 9 8 9 9 9 9 8 7 7 6 6 5 4 4 3 3 3 3 3 2 2 1 1 1 2 5 7 9 10 11 11 11 11 11 11 11 11 11 10 10 10 9 10 10 10 10 9 8 7 8 8 8 7 8 9 8 8 8
5 5 3 2 3 6 9 12 13 12 10 12 14 15 17 18 19 20 21 19 18 18 18 18 18 18 17 15 14 13 14 15 15 15 15 16 17 17 16 13 12 11 11 11 11 10 10 10 10 10 10 9 8 8 7 7 6 6 5 4 4 4 3 3 3 2 2 1 0 0 1 4 7 9 11 11 11 11 11 11 11 11 11 11 11 11 11 11 11 11 11 10 9 8 8 9 8 8 9 9 9 9 8
6 6 7 6 4 2 1 5 8 9 7 9 11 13 15 17 20 22 23 21 21 20 19 18 18 18 17 16 14 13 13 13 12 10 9 11 14 15 14 12 10 10 11 12 12 12 12 12 12 12 11 9 8 8 8 7 7 7 6 6 5 4 4 4 3 3 2 1 1 1 1 1 4 6 9 10 11 12 12 12 11 11 11 11 11 11 12 12 12 12 11 10 9 9 9 9 8 8 9 10 11 10 9
7 7 9 11 10 9 8 6 3 6 7 6 7 10 13 16 19 21 22 22 22 20 17 15 16 17 17 17 15 14 13 11 9 7 7 9 11 12 12 11 10 10 11 12 13 13 13 13 13 13 12 10 8 8 7 7 7 6 7 7 6 6 5 5 4 3 3 2 1 1 1 1 1 3 5 7 9 11 11 12 12 12 12 12 12 12 12 12 12 12 11 10 10 10 10 9 9 9 10 11 12 12 10
10 10 11 13 13 13 13 10 5 1 5 5 5 7 11 15 18 20 21 22 22 19 16 13 12 13 15 16 16 15 13 10 9 8 7 8 10 11 11 11 11 12 12 13 14 15 15 14 14 13 12 9 8 7 6 6 5 5 6 7 7 7 6 6 5 5 4 3 2 2 1 0 0 0 1 2 4 6 8 10 11 11 12 12 12 12 12 13 12 12 11 10 10 11 10 10 9 9 10 12 13 12 10
10 10 11 13 13 13 14 11 8 6 2 1 1 3 8 12 16 18 20 23 23 21 18 14 11 11 12 14 14 14 12 11 9 9 8 8 8 9 9 10 11 12 12 13 14 15 15 15 14 13 11 8 7 7 6 5 5 5 5 6 7 7 7 7 6 5 4 4 3 2 2 1 0 1 1 1 1 2 3 5 7 9 10 11 12 12 13 13 13 12 11 11 11 11 11 11 10 10 10 12 13 13 11
8 9 10 12 12 13 13 11 9 8 7 7 4 0 5 7 8 12 17 22 25 24 21 16 13 13 12 13 14 13 12 10 9 8 8 7 7 6 6 7 8 9 11 12 13 14 15 14 13 12 9 8 8 7 6 5 5 5 6 6 6 6 6 6 6 5 5 4 4 3 2 2 2 2 2 2 2 2 2 3 3 4 6 8 9 11 12 12 13 13 12 12 11 11 11 11 11 11 11 11 12 12 12
6 8 9 11 12 13 13 11 10 9 8 6 1 3 5 4 2 6 12 17 20 21 19 18 16 15 14 14 14 12 10 8 7 7 7 7 7 6 5 4 4 5 6 8 11 12 13 12 11 9 9 9 9 8 7 7 6 5 6 6 5 5 5 5 5 5 4 4 4 4 3 3 4 4 4 4 3 3 3 3 3 3 4 4 6 7 9 10 11 12 12 12 12 12 12 11 11 11 12 12 12 12 12
5 7 8 9 10 11 12 13 12 10 10 10 9 9 10 9 6 3 6 9 12 14 15 17 18 17 15 14 13 12 10 8 7 6 7 7 6 6 5 4 3 3 3 4 6 8 9 9 9 9 9 9 9 9 8 8 7 6 5 5 5 5 5 5 5 4 4 4 4 5 5 5 5 5 5 5 5 4 4 4 4 4 5 5 5 5 6 7 9 10 10 11 11 11 12 12 12 12 12 13 13 13 13
6 7 8 9 9 8 9 12 13 13 12 13 13 14 14 14 11 8 5 5 7 8 11 13 15 16 15 13 12 11 10 8 7 7 7 6 6 5 4 4 3 3 2 3 3 4 6 7 8 8 9 9 9 8 8 8 7 7 7 6 6 6 6 6 5 5 5 5 5 6 6 6 6 7 6 6 5 5 5 5 5 5 6 6 6 5 6 7 7 8 8 9 10 10 11 11 12 12 13 13 14 14 14
7 7 8 11 11 9 7 8 10 11 12 12 13 14 16 16 14 11 7 5 5 6 7 9 10 12 12 11 10 9 9 8 8 7 7 6 6 5 5 4 4 4 3 3 3 4 4 5 6 7 7 8 8 8 8 8 8 8 8 8 8 8 8 8 7 6 6 6 6 7 7 8 8 8 7 6 5 4 5 6 6 5 5 5 5 5 6 7 7 7 7 7 7 8 9 9 10 11 12 12 13 14 14
7 7 7 10 11 11 9 8 8 9 9 10 11 12 13 13 12 10 7 6 5 5 5 5 6 7 8 8 8 8 8 8 7 7 6 6 5 5 5 5 4 4 4 4 4 5 5 5 6 6 6 7 7 8 8 8 9 9 9 9 9 9 9 9 8 8 7 7 7 8 8 9 9 8 7 5 4 4 6 6 5 3 3 3 4 4 5 5 5 5 5 4 5 5 6 7 8 9 10 10 11 12 13
7 7 6 7 8 9 9 8 8 8 8 8 9 10 10 10 10 9 8 6 5 4 4 4 4 4 4 5 6 6 7 7 7 7 6 5 5 5 5 5 4 4 4 5 5 5 5 5 6 6 6 6 7 8 8 9 9 9 9 8 8 8 8 8 8 8 8 8 8 8 8 9 9 8 6 5 5 5 5 4 3 3 3 4 4 4 3 3 3 3 4 4 4 4 4 5 5 6 7 8 9 10 10
7 7 6 6 7 8 8 8 8 8 7 7 8 9 10 10 10 9 8 7 6 4 4 5 5 5 4 4 5 5 6 6 7 7 6 6 5 5 5 5 4 4 4 4 4 5 5 5 6 6 6 6 7 7 8 8 8 7 7 6 5 5 5 6 6 7 8 8 8 8 8 8 8 7 6 6 5 5 5 5 5 4 4 4 3 2 2 1 2 3 4 5 5 5 5 4 5 5 5 6 7 8 8
6 6 6 6 6 7 8 8 8 7 7 7 8 8 9 9 9 9 9 8 7 6 5 6 6 6 6 5 6 6 7 7 7 7 7 6 6 5 5 5 4 4 4 4 4 4 5 5 6 6 7 7 7 7 6 6 5 4 3 2 2 1 1 2 3 4 5 5 6 6 7 7 7 7 6 6 6 6 6 6 5 5 4 3 3 2 1 1 1 3 4 6 7 6 6 5 5 5 5 5 5 6 6
5 6 6 6 6 7 8 8 8 7 7 7 7 8 8 8 8 7 8 8 8 7 6 6 7 7 7 7 7 7 7 7 7 7 7 6 6 6 5 5 5 4 4 4 4 4 5 5 6 7 7 7 7 6 5 4 3 2 1 0 1 1 1 1 1 1 2 4 6 7 7 7 7 6 6 6 6 5 4 4 4 4 4 3 3 2 1 1 0 2 4 7 8 8 7 6 6 6 5 5 5 5 5
5 6 6 6 6 7 7 8 8 7 7 7 8 8 8 7 7 7 7 8 8 8 7 7 7 7 8 7 7 7 7 7 6 6 6 6 6 6 5 5 5 5 5 5 6 6 6 7 7 7 7 7 6 6 5 3 2 1 1 1 2 2 2 3 3 2 3 5 6 7 7 7 6 6 5 4 3 2 1 1 1 2 2 2 2 2 2 2 1 2 5 8 10 11 11 10 9 8 8 7 6 5 5
5 6 6 7 6 7 7 8 7 7 7 7 8 8 8 8 8 8 8 8 8 8 8 7 7 7 8 7 6 6 6 6 6 5 5 5 5 5 5 5 5 5 6 7 7 7 7 7 7 7 7 8 8 7 6 4 3 2 1 1 2 3 3 3 2 2 4 5 6 5 5 4 4 3 3 3 3 4 3 3 3 2 1 1 1 1 2 2 3 4 6 9 11 13 14 15 15 14 13 11 9 7 5
4 5 6 7 7 7 7 7 7 7 7 7 7 8 8 8 9 9 9 9 9 9 8 8 8 8 7 7 6 6 5 5 5 5 5 4 3 3 2 3 4 5 5 6 7 7 7 7 7 8 9 9 9 8 7 6 4 3 1 1 2 3 2 1 1 3 3 3 2 3 4 4 4 5 6 6 7 7 6 6 6 5 4 3 2 2 3 4 5 6 7 9 10 11 13 15 16 16 18 18 17 15 14
5 6 6 7 7 7 7 7 8 7 7 7 8 8 9 9 10 10 10 10 10 9 9 9 8 8 8 7 6 6 5 5 5 4 4 3 3 3 2 1 0 2 3 4 5 6 6 6 7 8 9 9 9 9 8 7 5 3 2 1 2 2 0 1 2 3 4 6 7 7 8 8 8 8 9 9 9 10 9 9 8 8 7 6 6 6 7 8 8 9 9 10 10 10 11 12 13 14 17 19 20 21 21
5 6 6 7 7 7 7 8 8 8 8 8 9 9 10 10 10 10 10 11 10 10 10 10 9 9 8 8 7 6 6 5 5 5 4 4 5 4 3 2 2 2 3 2 1 3 5 5 6 6 7 7 8 8 8 7 6 4 2 1 1 1 3 6 8 9 10 11 11 11 11 12 13 13 13 13 12 12 12 11 10 10 9 10 10 10 11 12 12 12 12 11 11 11 10 11 11 11 12 14 17 19 21
6 6 6 7 7 7 7 7 8 8 8 8 9 9 9 9 9 9 10 10 10 10 10 10 10 9 9 8 7 7 6 6 7 7 5 5 5 4 3 2 1 0 0 1 2 3 2 2 4 4 2 3 4 6 6 6 5 4 3 2 5 9 11 12 12 13 14 15 15 15 15 16 16 16 15 15 15 14 14 13 12 11 11 12 13 13 14 15 15 14 13 12 12 11 11 10 10 10 9 10 12 14 16
6 7 7 7 7 7 7 6 7 7 8 8 9 9 9 8 8 8 8 9 9 9 9 9 10 10 10 9 7 6 7 8 8 8 7 6 5 3 3 2 1 1 1 2 2 1 3 4 5 7 8 4 2 3 4 5 6 5 4 9 14 17 17 16 16 16 17 18 18 18 19 19 19 18 17 17 16 16 15 15 14 14 14 14 14 15 15 16 15 14 13 13 13 12 12 12 11 10 9 8 8 10 12
6 7 7 7 7 7 7 6 6 7 7 7 8 8 8 7 7 7 7 8 8 9 9 9 9 10 9 9 8 6 6 7 9 9 9 8 6 4 2 2 1 2 3 3 2 2 2 2 2 6 12 11 10 9 7 7 7 9 10 13 16 18 18 17 18 19 20 20 20 21 22 21 20 19 19 18 18 18 18 17 17 17 16 16 16 16 16 16 15 14 14 14 15 15 15 14 13 12 11 10 9 8 8
6 7 7 7 7 7 7 7 7 7 7 7 7 7 7 7 7 7 7 7 8 8 8 8 9 9 10 10 9 7 6 6 6 8 8 8 8 7 4 3 2 1 1 1 1 2 2 2 1 5 12 17 20 19 18 15 15 15 16 16 17 18 19 19 20 22 22 22 22 23 24 23 23 22 22 21 21 20 20 19 19 18 17 17 16 16 15 15 15 15 16 16 17 17 18 17 15 13 13 12 11 10 9
5 6 6 6 6 6 7 7 7 7 7 8 8 8 8 7 7 7 7 7 7 7 7 8 8 9 9 9 9 8 7 7 6 5 5 5 6 7 6 5 4 3 3 3 2 2 2 3 3 3 6 16 23 24 23 22 21 21 21 21 21 21 21 22 22 22 21 22 22 23 24 24 24 24 24 23 22 21 20 20 19 19 18 17 16 15 15 15 16 16 17 18 18 18 18 17 16 15 14 13 12 11 10
3 4 5 6 5 5 6 6 7 7 8 8 8 9 9 8 8 8 7 7 7 7 7 7 8 8 8 8 8 9 9 8 8 8 7 6 5 5 6 6 5 4 2 2 3 3 4 2 2 3 4 8 15 21 24 24 24 24 24 24 24 23 23 22 22 22 21 20 20 20 21 22 23 23 23 23 23 22 21 20 20 19 18 17 16 15 15 14 15 15 16 16 17 17 18 18 16 15 14 13 13 12 11
2 3 4 5 5 5 5 5 6 7 7 7 8 8 9 9 9 8 8 7 7 6 6 6 7 7 7 7 7 8 9 10 10 10 10 8 7 6 6 6 5 4 4 4 4 3 3 2 2 2 3 3 4 11 19 22 23 23 24 24 24 23 22 22 22 22 22 22 21 21 20 20 21 22 22 23 23 23 22 21 20 19 18 17 16 15 15 14 14 13 14 14 14 15 16 17 17 15 14 13 12 12 11
3 3 4 5 4 4 4 4 5 5 6 6 6 7 7 8 8 8 8 7 7 6 6 6 6 6 6 6 7 8 9 9 10 10 10 6 5 7 9 9 8 7 6 5 4 3 3 2 2 3 3 4 3 3 7 14 19 22 23 24 24 24 24 25 24 24 24 23 23 22 22 21 21 22 22 22 22 22 22 21 20 19 18 18 17 16 16 15 15 14 14 13 13 13 15 17 17 17 15 14 13 12 11
3 4 4 5 5 4 4 3 4 4 5 5 5 5 5 6 6 6 7 7 6 6 5 6 6 6 6 6 7 8 9 9 9 9 9 6 6 8 10 11 10 9 8 7 5 4 4 3 3 3 3 3 3 3 2 4 10 16 20 22 24 25 26 25 25 25 24 23 23 23 23 22 22 21 21 21 21 21 22 21 20 19 18 17 17 16 16 16 16 15 15 14 14 13 14 16 17 17 16 15 15 13 12
Wind_Direction
159 158 156 153 151 151 150 150 150 149 146 145 146 147 148 147 145 144 145 146 148 149 150 151 150 149 147 145 143 142 142 143 143 143 142 142 139 137 133 130 127 124 124 130 138 143 145 143 141 139 138 135 131 128 126 124 119 113 108 108 113 119 125 130 131 131 129 125 121 119 121 126 126 123 117 117 119 121 122 126 126 122 115 111 108 107 109 109 109 109 110 107 104 102 103 106 108 106 104 102 101 102 102
160 158 155 152 150 150 150 149 148 148 146 146 148 150 150 147 143 141 142 144 146 147 147 147 147 145 145 143 143 142 142 143 143 144 144 142 140 137 133 128 124 122 124 130 137 143 144 144 142 140 138 135 133 132 129 124 118 111 108 110 115 119 122 125 127 127 126 123 121 122 128 134 132 126 120 119 120 121 123 125 124 123 122 119 114 110 110 112 113 114 114 111 109 108 109 111 113 112 110 107 106 105 104
158 156 154 152 152 152 151 148 148 148 148 147 149 152 151 147 143 141 141 142 143 144 145 145 144 143 143 142 142 142 142 143 144 144 144 143 141 137 132 127 124 124 126 132 138 143 145 144 142 140 137 135 135 134 130 123 115 108 105 108 112 116 118 121 123 124 124 123 124 130 141 144 140 133 126 123 122 121 122 121 120 120 119 117 114 111 111 113 113 113 113 114 114 114 116 116 117 117 113 110 108 107 106
155 155 154 154 155 154 152 148 147 149 150 150 152 153 152 148 145 143 142 142 142 143 143 144 143 142 142 142 141 141 142 143 144 144 144 143 141 137 131 126 124 126 132 136 141 144 146 146 143 141 139 137 137 134 128 120 111 105 103 106 110 115 118 120 122 123 123 123 125 132 145 150 146 138 129 125 121 120 120 118 117 117 116 116 115 114 114 114 114 112 111 112 115 116 117 117 119 120 117 114 112 111 110
155 155 156 156 157 156 152 147 147 149 152 154 155 154 153 149 147 145 144 143 143 143 143 144 143 142 141 142 141 141 142 143 144 144 144 143 140 135 129 125 125 130 137 142 145 147 149 148 146 143 142 141 138 133 127 119 110 104 104 106 112 117 120 121 122 122 123 123 123 123 127 140 141 136 127 125 122 119 118 115 114 115 115 116 117 117 118 119 119 117 113 113 114 117 118 120 121 121 118 115 113 111 110
156 157 158 157 157 157 154 150 149 151 154 157 158 156 153 150 148 147 147 145 144 144 144 145 144 143 142 142 142 142 142 143 144 145 145 143 139 134 128 125 125 131 140 147 150 151 151 150 148 146 145 142 139 134 128 120 111 106 107 111 118 122 122 121 120 121 123 124 121 116 114 123 128 129 127 129 129 125 121 118 118 117 117 118 118 117 118 121 122 123 122 120 119 119 120 122 123 121 117 114 111 107 104
158 158 158 157 157 157 157 156 155 155 155 157 158 157 153 151 150 149 149 148 146 145 145 146 146 145 144 144 144 144 145 145 146 147 146 144 140 135 129 125 124 129 139 149 155 155 153 152 149 147 145 143 141 137 131 121 111 107 109 115 123 127 125 122 120 120 120 122 122 118 116 118 122 126 130 134 135 131 126 127 129 129 126 125 125 124 122 123 123 125 129 130 128 125 125 126 125 122 118 114 110 106 105
159 158 158 157 157 158 159 160 162 160 157 155 156 156 153 152 151 152 151 150 149 148 147 147 147 147 147 147 147 147 147 148 149 149 149 146 142 137 131 125 122 124 133 147 156 159 157 153 150 147 146 145 144 140 134 123 113 108 110 116 125 129 126 124 123 121 117 117 119 121 122 122 124 128 132 136 134 130 127 129 130 129 125 124 123 123 125 126 126 125 126 131 134 134 132 131 128 123 118 115 113 115 118
161 160 159 159 158 158 159 162 165 164 158 154 154 156 153 153 153 153 153 152 151 150 150 149 148 149 149 150 151 151 151 151 152 152 152 149 145 140 133 127 122 121 127 140 154 161 160 157 152 149 148 148 146 143 134 124 114 110 111 115 123 129 130 127 126 124 118 115 117 121 125 126 127 129 131 133 133 130 127 129 128 126 122 121 119 117 119 123 124 123 122 124 131 137 138 135 129 123 116 113 116 122 126
162 162 162 161 161 159 159 161 165 164 157 153 154 155 153 154 154 154 155 154 153 153 152 150 149 150 151 153 153 154 154 155 155 155 155 152 147 142 136 129 124 121 123 133 146 157 161 160 156 152 150 150 148 143 133 123 116 112 112 114 120 126 130 130 130 128 123 118 117 120 125 129 132 131 130 132 134 133 130 131 132 132 132 136 140 141 139 134 129 127 128 130 134 137 135 129 124 119 116 116 116 116 119
163 163 163 163 162 161 160 161 162 161 157 156 156 156 155 155 155 155 156 156 156 155 153 152 151 151 152 154 155 156 156 157 158 158 157 154 149 144 138 132 127 122 121 127 138 149 157 160 159 155 152 151 148 142 134 124 118 115 115 116 120 124 130 134 134 132 129 125 121 120 123 129 134 137 138 139 142 140 133 133 136 141 147 150 155 158 157 152 145 139 140 141 140 137 133 130 126 123 122 126 124 115 111
163 162 162 163 163 163 162 162 161 161 160 160 159 157 156 155 155 156 158 158 158 157 155 154 153 153 154 155 156 156 157 158 159 160 159 156 151 146 140 136 131 126 123 125 131 140 150 157 160 158 155 153 150 144 136 128 122 118 117 118 121 126 132 135 136 136 136 133 130 126 125 128 133 139 145 150 154 153 143 143 146 152 157 152 149 150 152 150 146 144 145 142 138 136 137 136 133 130 134 141 140 124 112
162 161 160 162 164 165 165 164 163 163 165 165 162 159 157 156 156 157 159 160 159 159 158 158 157 157 156 156 156 156 157 158 160 161 161 158 153 148 143 139 135 131 126 125 127 133 142 152 158 160 159 156 153 147 141 134 127 122 120 122 124 128 133 137 139 140 140 140 139 137 134 131 133 139 146 153 158 159 155 155 157 160 158 148 138 137 139 140 140 139 138 135 133 134 138 140 140 139 143 149 148 133 121
161 160 159 161 164 166 167 166 165 166 168 168 166 162 159 157 157 158 160 161 161 160 161 161 161 161 160 159 158 157 157 159 160 162 162 160 156 151 146 143 140 137 132 128 127 129 135 145 154 161 162 158 154 149 144 138 133 128 125 126 128 131 135 138 142 144 144 143 144 145 144 140 139 141 147 154 159 160 159 160 162 160 156 146 138 134 135 137 138 138 135 132 131 134 137 140 142 145 151 157 156 146 137
161 160 160 160 163 166 169 170 168 167 168 170 170 166 162 160 159 160 161 162 162 162 162 163 164 164 164 163 161 160 159 160 162 164 164 163 159 155 151 148 146 143 139 135 131 129 131 138 148 158 163 161 157 152 149 143 139 133 129 129 131 134 137 140 144 146 146 147 149 152 154 150 147 146 150 155 161 162 162 163 163 162 157 151 146 144 145 148 148 144 138 136 135 135 136 138 144 151 159 167 166 161 160
162 160 160 160 161 165 170 173 171 167 166 170 171 169 165 164 163 163 164 163 162 162 163 165 165 166 166 165 164 162 161 162 163 165 166 166 164 161 157 154 151 149 146 143 138 134 132 135 142 153 163 166 163 158 154 150 145 139 132 131 133 136 139 141 144 145 144 144 148 154 159 159 155 151 151 155 161 163 162 162 162 161 159 159 159 158 156 160 161 156 147 147 146 144 143 142 146 154 165 173 170 167 173
163 163 162 159 159 163 168 174 172 168 166 168 170 169 169 168 167 166 166 164 163 163 164 166 166 166 166 166 165 164 163 164 165 166 167 167 167 166 164 161 158 155 153 150 147 143 139 137 140 148 160 169 171 168 161 157 153 147 138 135 135 137 138 141 143 144 142 142 144 150 157 161 160 156 154 158 163 163 160 157 155 155 156 160 164 165 164 169 172 170 163 161 158 158 157 149 147 152 163 171 172 172 178
166 166 166 162 160 161 166 172 173 172 169 169 168 169 171 171 170 168 167 164 163 163 166 167 167 166 165 164 164 164 164 165 166 166 167 167 168 168 168 167 165 163 160 158 155 152 148 144 143 146 155 169 177 177 170 165 164 160 150 143 140 140 140 141 143 145 143 141 141 144 150 156 159 158 158 162 164 163 158 153 149 148 150 154 160 165 168 174 177 179 176 173 173 174 173 163 155 154 161 174 183 186 187
167 168 170 168 165 163 165 171 174 176 175 172 169 170 173 173 171 169 168 165 163 164 166 168 168 167 166 163 162 163 164 166 166 166 167 167 169 170 171 171 171 170 168 165 163 160 156 153 150 149 152 166 180 184 180 174 175 175 168 158 151 148 146 145 146 147 146 144 142 142 145 149 153 156 158 162 164 163 162 156 151 147 146 148 152 158 166 172 177 182 186 187 188 190 190 186 178 170 168 194 207 207 201
168 170 172 173 172 171 169 172 175 177 178 177 175 174 173 172 171 170 169 166 164 165 168 170 171 171 169 166 163 162 164 166 167 168 169 170 171 173 174 176 176 176 176 174 170 167 164 160 157 155 155 164 181 188 187 184 185 188 183 172 163 158 154 151 151 152 152 150 147 144 144 145 149 152 155 159 162 165 166 164 160 156 152 149 148 152 160 172 180 189 197 204 208 209 206 204 203 202 205 231 232 226 219
169 171 173 176 177 177 176 174 175 177 179 182 182 178 172 171 172 172 171 168 166 167 170 172 175 175 175 172 167 164 164 167 170 172 174 175 177 178 179 179 179 179 180 179 177 174 170 166 163 159 158 161 175 186 189 190 193 197 196 184 174 167 163 159 157 159 160 157 154 150 147 147 150 152 155 157 161 166 172 176 175 172 170 167 162 161 168 180 191 200 210 224 229 229 221 219 218 224 240 258 255 244 234
171 172 174 176 178 180 180 179 177 178 180 183 185 182 175 175 176 176 174 172 170 171 174 176 179 180 181 179 174 169 166 168 172 176 178 181 183 184 183 181 179 178 179 179 179 178 175 171 167 162 159 155 162 176 185 191 197 203 204 193 182 175 171 167 164 164 166 164 162 158 154 155 158 160 161 163 166 172 177 181 182 183 188 191 192 192 193 196 206 216 229 240 247 246 238 228 222 226 242 266 271 263 254
173 173 174 176 178 181 182 181 181 182 183 183 184 184 181 181 180 179 178 176 175 176 178 180 182 183 183 183 181 176 171 170 172 176 179 183 186 188 187 184 181 179 177 176 176 175 174 172 168 164 161 156 154 164 177 186 195 204 207 198 189 183 180 176 173 171 171 171 170 167 165 167 171 173 175 175 178 183 187 192 194 195 199 205 214 216 210 209 215 228 241 252 260 261 254 236 225 224 235 250 273 280 273
175 175 175 176 178 180 182 183 184 187 190 184 182 183 184 183 182 182 181 181 180 181 182 183 184 184 180 180 183 184 178 175 174 175 177 181 185 187 187 186 184 181 177 171 169 168 169 169 167 166 164 163 161 165 174 181 189 200 205 200 193 190 188 185 182 178 177 175 175 174 173 176 179 185 191 194 192 192 196 202 205 205 206 212 223 228 220 210 208 216 235 256 269 272 267 252 234 226 232 243 263 281 284
178 177 177 177 178 179 181 183 186 190 195 188 183 183 185 183 183 184 185 184 184 185 186 186 186 184 179 179 185 190 186 182 178 177 176 179 183 185 185 184 182 179 174 167 164 163 164 165 166 167 168 170 172 179 188 193 195 197 198 196 194 193 192 192 190 188 185 182 179 178 178 181 184 190 202 208 209 205 203 211 213 211 208 208 216 227 229 222 213 206 214 233 255 265 262 258 246 233 232 239 253 265 271
179 178 178 177 177 179 181 183 186 190 194 193 190 188 189 187 187 189 188 185 186 189 188 187 187 187 185 186 190 193 190 187 184 181 180 181 184 184 181 178 176 173 169 165 162 161 162 164 166 169 172 174 178 188 203 211 210 204 198 195 194 195 196 197 198 197 195 192 188 186 184 185 186 189 198 208 217 217 209 222 235 235 220 208 209 222 232 234 232 232 232 233 234 235 236 236 235 232 231 242 254 257 258
178 180 181 175 177 181 183 185 188 190 192 195 196 197 197 195 196 196 192 186 187 192 190 186 187 189 191 193 194 194 191 189 187 186 185 186 188 187 181 175 171 169 167 165 164 164 165 168 171 173 174 174 180 192 207 210 208 205 203 201 198 199 199 202 203 203 202 200 199 197 195 192 190 190 191 198 211 217 216 223 246 264 250 216 208 214 226 231 239 252 267 277 269 246 235 233 232 232 235 240 250 258 259
183 181 174 173 177 184 190 192 193 193 193 195 198 200 202 201 201 199 194 188 190 193 191 186 186 190 195 196 196 194 192 191 191 191 193 193 192 190 186 177 172 170 170 171 172 173 173 175 176 177 176 175 182 193 199 196 195 199 203 206 206 205 207 209 211 208 205 204 204 205 205 202 199 196 194 194 200 208 214 225 243 259 258 230 211 206 215 222 234 252 274 297 303 284 250 247 250 251 248 247 247 250 257
195 185 164 172 179 185 194 201 201 199 197 197 198 201 203 203 201 198 196 192 191 192 189 185 186 190 196 197 196 195 194 194 196 198 200 201 197 193 190 184 178 174 176 179 183 185 185 183 182 180 178 178 183 187 184 182 187 195 204 209 212 213 214 215 217 212 208 206 208 209 210 211 209 206 203 201 201 204 209 218 230 245 255 251 231 214 213 218 230 245 262 287 297 283 251 253 261 264 261 263 261 259 263
192 178 160 173 183 188 192 202 209 208 203 201 200 201 202 202 200 199 199 195 190 188 187 185 187 191 195 196 196 195 195 197 200 203 205 209 206 200 194 191 186 182 182 185 190 194 195 191 186 181 180 182 184 184 179 180 187 197 205 210 214 215 216 213 211 205 202 206 209 212 215 216 217 216 215 213 213 213 213 216 221 230 243 255 254 240 229 228 232 240 251 271 283 271 243 243 252 260 262 265 266 266 268
187 174 161 172 183 189 192 197 207 213 210 206 204 202 201 200 199 200 204 198 191 186 188 188 190 192 194 194 194 195 196 200 203 207 209 211 211 207 200 196 193 191 189 189 191 194 196 194 189 185 184 188 190 186 184 185 191 200 206 213 217 220 218 213 201 179 161 183 203 213 218 220 221 222 223 224 226 226 227 227 228 230 234 243 246 244 240 238 238 242 250 265 273 263 244 243 249 255 255 254 257 261 261
153 139 156 177 184 188 192 193 199 207 212 211 209 206 204 201 199 202 206 202 194 190 191 193 194 194 193 192 193 196 199 203 207 212 213 210 209 207 201 196 195 197 196 193 190 188 189 189 188 189 189 192 193 191 190 190 192 197 205 215 223 227 224 215 201 178 148 130 162 209 219 222 224 226 228 230 232 235 236 238 240 241 241 243 246 247 244 241 242 247 256 264 264 255 246 247 252 255 252 250 250 254 257
86 66 79 135 180 193 201 203 198 194 196 208 211 210 207 205 205 206 208 204 198 194 194 196 195 193 190 188 190 196 203 208 211 213 212 208 207 205 200 197 196 197 197 193 187 181 179 181 184 188 190 192 194 193 192 190 191 196 203 211 220 227 228 219 205 190 172 153 104 247 232 226 225 227 230 233 236 238 240 241 244 247 249 250 252 252 252 250 251 255 259 262 258 251 249 247 252 257 255 253 251 252 255
85 79 83 86 86 89 214 220 205 193 181 195 207 212 211 211 214 215 212 204 198 197 198 196 193 190 188 187 190 196 204 209 211 209 207 208 208 207 205 203 202 199 194 188 182 177 176 178 182 185 187 187 187 189 188 187 188 193 201 209 216 223 228 223 213 203 201 211 242 283 277 240 229 227 229 232 235 238 241 243 245 247 249 251 253 255 257 257 258 259 261 260 255 250 250 250 255 261 260 255 252 251 252
131 119 103 90 85 83 81 99 172 225 221 202 208 219 221 219 220 221 217 204 198 198 200 195 192 193 195 193 193 195 200 200 200 200 202 203 205 207 208 210 210 204 193 182 177 175 175 178 181 184 183 178 178 181 184 181 182 187 196 203 211 217 223 226 223 217 217 225 236 243 252 257 237 230 229 231 233 237 240 241 244 247 249 250 252 254 256 258 259 259 259 256 252 251 253 256 263 269 269 262 254 248 244
134 122 104 89 91 100 104 106 94 313 246 223 229 239 231 223 222 220 213 200 195 195 194 191 192 198 203 200 197 194 191 183 181 183 186 188 193 198 203 206 207 202 192 181 175 173 174 176 180 182 180 175 175 181 185 179 174 179 190 199 205 211 218 224 227 225 223 224 227 225 217 202 227 252 239 238 239 241 242 243 245 248 249 251 252 253 255 259 262 263 262 258 254 253 255 258 264 271 275 274 268 260 250
135 126 101 90 96 110 117 109 82 47 7 336 311 249 218 217 215 210 200 191 188 187 186 185 187 192 198 198 194 186 176 169 166 165 165 169 176 185 193 199 202 200 195 187 181 177 176 177 180 181 181 181 183 189 192 182 172 172 181 190 200 209 217 224 228 229 226 226 226 226 225 234 305 343 352 344 305 275 264 258 255 253 253 254 255 255 256 258 262 266 268 269 267 265 263 261 261 265 272 278 280 279 273
137 128 107 105 109 118 123 102 73 54 49 36 27 280 196 197 197 192 185 181 178 177 178 177 177 181 185 188 185 178 170 165 160 155 151 153 158 164 175 189 198 201 201 199 194 189 185 183 182 184 189 194 196 196 196 188 179 174 173 177 188 203 217 226 231 231 230 231 234 238 245 264 293 310 322 334 343 343 331 316 296 278 269 264 261 260 261 262 263 265 268 270 273 274 271 268 266 265 268 272 276 279 281
140 136 126 122 123 127 126 105 85 79 87 87 97 243 233 246 194 161 168 171 167 165 166 166 167 170 173 174 173 169 165 163 158 151 146 144 143 142 145 154 170 188 200 206 207 205 200 196 193 196 204 207 205 201 198 194 190 184 177 177 182 197 216 229 235 237 240 243 250 259 269 280 293 303 308 317 326 334 337 335 332 326 314 298 284 275 271 270 270 270 270 270 271 273 272 271 269 268 268 268 270 272 275
152 157 154 140 134 133 132 126 123 126 136 153 183 218 242 265 268 203 164 161 157 154 155 157 160 162 162 162 160 157 154 152 152 150 148 146 145 143 140 136 134 143 170 193 204 208 209 208 209 211 213 213 209 205 201 198 199 200 200 200 204 211 223 233 241 247 251 257 265 274 281 287 295 300 304 308 314 323 328 329 333 338 342 341 331 315 296 286 282 280 278 276 275 274 272 270 269 268 268 269 270 272 273
165 176 180 170 158 147 143 141 146 156 168 176 187 202 217 233 246 251 229 183 162 154 155 157 158 157 155 155 153 150 149 149 152 156 160 162 162 163 165 161 156 154 161 168 179 191 200 205 209 212 212 211 209 208 207 207 209 214 223 232 239 242 242 243 247 252 258 265 273 280 286 290 296 300 302 302 306 314 323 326 332 340 349 356 354 340 320 303 295 291 286 283 280 278 274 272 271 270 269 269 272 274 275
166 179 190 190 185 174 157 152 158 166 175 183 190 195 201 208 219 232 238 219 192 175 169 166 164 162 159 160 160 159 157 159 162 168 174 178 180 182 186 191 190 190 192 188 186 188 195 202 207 211 213 213 214 216 219 221 224 229 237 248 255 258 256 252 250 251 256 265 273 281 287 292 297 301 303 300 300 309 321 326 331 338 347 350 341 327 314 306 305 303 295 291 285 279 276 272 272 272 272 273 275 277 278
154 171 186 195 192 181 164 157 161 168 176 185 191 195 196 198 202 207 210 215 210 198 186 176 172 173 174 173 174 175 174 173 175 178 181 182 184 187 188 190 193 195 199 198 196 197 201 205 211 216 221 225 228 231 234 237 240 244 250 257 262 263 261 256 251 250 253 261 271 279 287 293 299 303 306 303 303 312 320 322 323 321 313 301 294 291 293 296 305 313 313 310 296 282 277 272 271 273 276 278 279 280 283
143 158 173 179 173 163 157 160 166 172 178 185 190 192 194 196 199 200 202 205 208 204 191 176 166 169 179 178 178 179 178 175 173 173 176 176 176 174 176 176 179 185 191 191 192 193 197 201 208 216 225 233 238 242 245 247 250 255 260 264 266 266 262 257 253 251 253 259 267 276 283 292 299 306 311 312 315 315 310 299 281 261 252 251 254 258 268 282 303 323 339 344 334 313 299 295 292 289 284 283 283 283 284
139 147 154 152 146 145 151 162 171 178 181 183 183 185 188 193 198 202 203 201 200 193 181 171 162 158 161 162 163 162 163 161 160 160 161 162 163 161 159 161 167 175 180 182 183 186 190 194 200 208 216 226 235 243 248 252 257 262 265 267 266 264 260 255 252 252 255 259 265 272 281 290 298 304 308 305 304 298 282 269 260 252 248 249 249 250 257 278 330 356 7 8 1 350 337 328 324 317 302 294 290 285 281
140 145 149 151 152 153 158 164 171 177 180 177 175 174 178 184 191 196 199 197 192 186 179 170 165 161 157 155 153 153 152 152 153 154 155 156 156 158 158 162 170 180 185 186 188 192 197 202 205 209 213 218 227 237 247 254 260 263 264 266 266 264 262 254 253 255 260 266 271 276 280 283 286 286 283 276 272 268 265 260 257 255 254 257 262 267 271 258 27 36 33 27 18 8 359 351 345 337 323 314 306 295 285
145 148 151 158 165 169 169 168 169 171 173 171 169 166 166 171 176 181 187 188 185 182 182 177 170 165 163 161 158 157 155 155 156 157 159 161 164 169 172 176 185 197 205 210 214 217 222 225 225 224 223 225 231 239 248 255 259 262 277 328 31 42 36 43 27 327 294 281 276 273 270 267 263 257 254 255 256 255 253 250 250 253 260 267 272 275 275 249 142 73 60 47 38 30 23 17 9 0 351 343 331 316 302
151 153 155 162 171 178 178 176 173 169 168 168 167 166 165 164 164 166 172 178 180 181 183 183 178 171 168 170 170 167 164 165 167 168 168 171 178 186 192 197 206 216 225 233 238 239 242 242 240 237 236 241 247 253 259 261 265 282 334 24 40 45 48 52 41 2 294 269 260 258 255 252 247 243 242 244 239 217 194 203 234 260 277 282 281 273 260 234 184 119 89 69 58 50 46 43 38 31 22 8 352 338 325
156 156 157 161 169 177 181 181 177 171 166 166 167 169 171 170 167 164 165 171 178 181 182 183 179 174 169 174 177 174 170 173 179 182 182 184 190 199 207 217 227 234 237 242 244 246 246 245 243 242 246 254 260 264 266 268 273 288 332 18 37 48 56 54 30 295 266 256 251 247 240 231 221 204 170 145 132 126 119 110 99 79 38 355 300 252 230 207 177 140 112 90 74 62 57 54 53 51 46 40 34 26 20
156 153 154 156 162 169 174 176 176 173 168 165 165 168 171 172 169 164 163 167 174 178 180 181 177 173 170 171 173 173 172 179 184 187 188 188 187 188 202 222 228 231 236 237 240 243 242 240 240 245 251 257 260 263 264 266 270 278 310 5 33 47 61 47 264 250 242 223 189 167 160 156 144 133 130 129 127 124 120 114 107 97 85 76 94 144 163 166 157 140 123 107 92 77 65 59 60 61 60 56 53 53 57
160 153 151 154 159 164 166 169 171 169 165 162 162 163 165 166 166 165 165 168 171 175 176 176 175 173 173 171 171 172 175 181 185 183 179 176 170 155 118 103 3 273 240 229 227 227 229 232 240 249 255 257 258 258 258 258 260 264 280 339 16 20 346 198 180 162 141 121 115 117 123 124 118 115 122 126 126 122 119 117 114 111 106 103 107 117 127 133 135 130 124 117 108 95 80 71 69 70 69 63 58 57 61
158 157 156 157 158 159 162 166 168 167 164 163 161 160 160 160 162 165 169 171 174 176 177 174 171 172 175 174 174 175 178 180 184 187 182 155 143 137 122 110 64 9 345 337 262 221 214 228 246 260 266 262 256 253 251 249 248 244 242 284 334 41 108 120 121 118 114 108 104 104 108 109 111 114 119 122 121 118 116 115 116 116 115 116 113 110 113 120 123 123 121 121 117 107 94 87 82 80 78 67 60 57 58
144 147 152 153 153 152 155 161 166 167 168 167 164 161 160 161 162 165 171 175 178 180 180 177 172 170 171 173 176 180 183 182 184 189 189 160 141 126 104 83 77 85 334 49 3 336 318 30 50 43 350 277 250 240 236 234 230 222 210 112 96 102 108 109 107 103 99 97 96 98 101 103 106 110 115 117 117 115 115 116 117 117 118 117 116 114 113 116 119 122 122 121 118 111 98 91 87 87 87 73 59 54 53
131 133 136 140 143 145 147 153 159 163 166 168 167 164 161 161 162 165 170 175 178 181 183 181 177 172 170 171 174 180 187 187 188 190 192 177 158 130 88 78 103 169 148 107 99 16 318 340 23 42 48 62 114 165 186 198 198 185 140 103 101 102 102 99 96 94 92 91 92 96 99 102 104 108 111 112 112 112 113 116 118 120 121 120 118 116 115 115 119 123 121 117 115 108 94 83 82 85 85 76 61 51 48
122 123 125 129 133 138 143 147 151 153 157 161 163 162 159 157 158 161 165 169 176 181 183 182 179 175 171 171 171 169 171 186 192 195 199 193 187 179 155 120 87 38 24 40 96 171 242 277 8 48 54 69 86 101 116 134 136 125 110 104 103 102 100 95 92 92 92 93 94 95 96 99 101 104 105 106 106 108 109 113 115 118 119 119 118 116 115 115 118 119 115 110 108 101 87 74 71 75 76 72 64 55 47
116 117 118 120 126 133 141 145 146 145 147 150 153 155 154 152 151 154 159 164 170 175 178 180 179 177 175 173 168 160 150 153 177 195 202 202 200 198 191 166 142 113 57 13 233 225 232 218 126 57 56 68 76 80 83 92 98 100 101 102 103 102 100 97 92 90 90 93 93 93 93 94 95 96 97 99 100 102 103 104 106 108 110 111 112 110 109 109 110 109 105 101 99 93 81 70 66 68 71 71 66 60 52
117 112 112 114 119 129 140 145 145 143 141 140 142 144 145 147 148 150 152 156 161 166 171 175 177 178 177 174 167 158 149 138 143 161 179 182 190 195 196 198 190 178 174 180 195 211 203 166 141 92 76 68 70 75 80 86 90 91 92 94 97 99 99 97 93 90 88 89 89 89 90 90 90 89 90 92 93 94 94 93 94 95 97 98 98 97 96 96 96 95 92 90 88 84 77 68 63 63 66 66 63 58 51
127 115 112 110 115 126 137 144 146 144 141 140 139 140 142 144 142 139 141 145 151 158 167 172 175 176 177 177 171 161 149 138 135 139 143 143 150 166 185 194 194 192 189 147 144 154 153 119 111 134 128 81 68 70 79 81 82 83 84 86 90 94 96 96 94 92 89 87 87 87 87 87 86 85 84 84 86 86 85 84 84 84 85 86 86 85 84 82 82 80 78 77 77 76 73 65 59 57 59 59 57 52 47
129 117 112 108 112 124 136 146 148 146 141 141 143 145 144 142 137 134 135 139 144 150 160 165 170 173 176 181 178 167 152 142 136 136 138 132 126 129 146 163 172 168 145 124 124 136 143 142 154 155 139 132 80 65 67 71 74 76 78 82 86 90 91 91 90 89 88 88 89 89 87 85 84 83 81 80 79 79 79 78 77 77 76 76 76 75 75 74 73 72 70 69 69 70 69 62 55 51 52 53 52 48 43
126 116 112 113 116 122 132 145 151 150 146 145 147 149 147 142 139 136 136 138 142 147 153 157 163 168 173 177 180 175 162 152 148 149 148 138 116 113 121 130 140 146 146 145 144 147 155 147 151 153 139 137 138 97 63 66 71 76 77 79 82 85 84 83 83 84 85 87 88 88 87 85 83 81 79 78 77 76 76 76 75 74 72 71 70 69 69 69 69 70 69 68 68 69 68 64 56 50 48 49 47 44 39
141 125 114 113 118 125 132 142 149 149 146 145 146 146 146 142 140 139 137 138 142 147 154 158 162 164 168 169 173 175 170 160 156 160 165 155 131 119 121 123 128 134 139 139 141 148 154 143 137 142 143 137 131 127 121 86 78 77 76 78 80 80 78 77 78 80 82 84 85 86 86 84 82 80 79 78 77 76 76 76 76 75 74 72 71 70 69 69 69 69 69 69 71 72 72 69 62 54 49 48 47 44 40